Location: York
(31.8935°S, 116.7682°E)
Time: 14:15:26
(UTC+08:00)

Envisat - Visible Passes

Search period start: 04 August 2020 00:00
Search period end: 14 August 2020 00:00
Orbit: 764 x 766 km, 98.1° (Epoch: 03 August)

Date Brightness Start Highest point End Pass type
(mag) Time Alt. Az. Time Alt. Az. Time Alt. Az.
04 Aug 3.0 05:42:24 10° NNE 05:47:30 89° WNW 05:52:39 10° SSW visible
04 Aug 3.3 17:56:32 10° SSE 18:01:29 48° E 18:06:23 10° N visible
04 Aug 5.8 19:36:57 10° SSW 19:40:03 16° WSW 19:43:06 10° WNW visible
05 Aug 4.4 05:06:10 10° NE 05:10:50 38° ESE 05:15:34 10° S visible
05 Aug 4.5 18:58:53 10° S 19:03:35 37° WSW 19:08:14 10° NW visible
06 Aug 5.7 04:31:17 10° ENE 04:34:23 16° ESE 04:37:32 10° SSE visible
06 Aug 3.3 06:08:04 10° N 06:12:58 47° W 06:17:54 10° SSW visible
06 Aug 3.0 18:21:46 10° SSE 18:26:56 90° SE 18:32:02 10° NNW visible
07 Aug 3.3 05:31:07 10° NNE 05:36:11 71° ESE 05:41:18 10° S visible
07 Aug 5.5 19:25:04 10° SSW 19:28:49 21° WSW 19:32:32 10° WNW visible
08 Aug 4.9 04:55:13 10° NE 04:59:35 29° ESE 05:04:00 10° SSE visible
08 Aug 4.0 18:47:22 10° S 18:52:18 48° WSW 18:57:11 10° NNW visible
09 Aug 5.9 04:21:02 10° E 04:23:11 13° ESE 04:25:20 10° SE visible
09 Aug 3.0 05:56:34 10° N 06:01:35 62° W 06:06:41 10° SSW visible
09 Aug 3.0 18:10:28 10° SSE 18:15:36 70° ENE 18:20:40 10° N visible
09 Aug 6.0 19:52:28 10° SW 19:53:56 11° WSW 19:55:24 10° W visible
10 Aug 3.7 05:19:55 10° NNE 05:24:52 54° ESE 05:29:53 10° S visible
10 Aug 5.1 19:13:21 10° SSW 19:17:34 26° WSW 19:21:47 10° NW visible
11 Aug 5.3 04:44:23 10° ENE 04:48:20 23° ESE 04:52:19 10° SSE visible
11 Aug 3.7 06:22:33 10° NNW 06:27:06 33° W 06:31:42 10° SW visible
11 Aug 3.5 18:35:55 10° S 18:41:00 63° WSW 18:46:02 10° NNW visible
12 Aug 2.9 05:45:09 10° N 05:50:15 81° WNW 05:55:25 10° SSW visible
12 Aug 3.2 17:59:13 10° SSE 18:04:15 53° E 18:09:12 10° N visible
12 Aug 5.9 19:39:58 10° SSW 19:42:44 15° WSW 19:45:30 10° W visible
13 Aug 4.3 05:08:48 10° NE 05:13:35 42° ESE 05:18:23 10° S visible
13 Aug 4.7 19:01:43 10° S 19:06:18 34° WSW 19:10:52 10° NW visible
